Grand Junction, CO

6:06 PM MST on December 13, 2017 (GMT -0700)
Walker

Weather History for KGJT - May, 2014

Change the Weather History Date:

Saturday, May 31, 2014

  Actual Average Record
Temperature  
Mean Temperature 75 °F 66 °F  
Max Temperature 89 °F 82 °F 100 °F (2002)
Min Temperature 61 °F 51 °F 37 °F (1988)
Degree Days  
Heating Degree Days 0 2  
Month to date heating degree days 204 154  
Since 1 July heating degree days 6250 5589  
Cooling Degree Days 10 4  
Month to date cooling degree days 59 48  
Year to date cooling degree days 59 51  
Growing Degree Days 26 (Base 50)    
Moisture  
Dew Point 37 °F    
Average Humidity 32    
Maximum Humidity 55    
Minimum Humidity 8    
Precipitation  
Precipitation T in 0.02 in 0.36 in (1930)
Month to date precipitation 1.49 0.88  
Year to date precipitation 3.78 3.83  
Snow  
Snow 0.00 in 0.00 in 0.00 in (2002)
Month to date snowfall 0.0 0.1  
Since 1 July snowfall 25.7 19.1  
Snow Depth 0.00 in    
Sea Level Pressure  
Sea Level Pressure 29.79 in    
Wind  
Wind Speed 10 mph (SSE)    
Max Wind Speed 24 mph    
Max Gust Speed 30 mph    
Visibility 10 miles    
Events Rain , Thunderstorm    
T = Trace of Precipitation, MM = Missing Value Source: NWS Daily Summary

Daily Weather History Graph

Daily Weather History Graph

Search for Another Location

Airport or City:

Trip Planner

Search our weather history database for the weather conditions in past years. The results will help you decide how hot, cold, wet, or windy it might be!

Date:

Astronomy

May. 31, 2014 Rise Set
Actual Time 5:50 AM MDT 8:33 PM MDT
Civil Twilight 5:18 AM MDT 9:05 PM MDT
Nautical Twilight 4:39 AM MDT 9:44 PM MDT
Astronomical Twilight 3:55 AM MDT 10:29 PM MDT
Moon 8:29 AM MDT (5/31) 10:54 PM MDT (5/31)
Length of Visible Light 15h 46m
Length of Day
14h 43m
Waxing Crescent, 9% of the Moon is Illuminated
May 31
Waxing Crescent
Jun 5
First Quarter
Jun 12
Full
Jun 19
Last Quarter
Jun 27
New

Hourly Weather History & Observations

Time (MDT) Temp. Dew Point Humidity Pressure Visibility Wind Dir Wind Speed Gust Speed Precip Events Conditions
12:53 AM 68.0 °F 42.1 °F 39% 29.87 in 10.0 mi Calm Calm - N/A   Partly Cloudy
1:53 AM 66.0 °F 43.0 °F 43% 29.87 in 10.0 mi Variable 5.8 mph - N/A   Clear
2:53 AM 64.4 °F 44.6 °F 49% 30.07 in 10.0 mi Variable 4.6 mph - N/A   Clear
3:53 AM 64.0 °F 44.1 °F 48% 29.86 in 10.0 mi East 16.1 mph 20.7 mph N/A   Partly Cloudy
4:53 AM 62.1 °F 44.1 °F 52% 29.87 in 10.0 mi ESE 8.1 mph - N/A   Scattered Clouds
5:53 AM 60.8 °F 44.6 °F 55% 30.06 in 10.0 mi East 13.8 mph - N/A   Mostly Cloudy
6:53 AM 63.0 °F 44.1 °F 50% 29.86 in 10.0 mi ENE 15.0 mph - N/A   Clear
7:53 AM 66.9 °F 44.1 °F 44% 29.86 in 10.0 mi East 17.3 mph 23.0 mph N/A   Clear
8:53 AM 68.0 °F 46.4 °F 46% 30.06 in 10.0 mi SE 11.5 mph - N/A   Clear
9:53 AM 72.0 °F 46.0 °F 40% 29.84 in 10.0 mi SE 16.1 mph 19.6 mph N/A   Clear
10:53 AM 73.0 °F 44.1 °F 35% 29.83 in 10.0 mi SSW 6.9 mph - N/A   Clear
11:53 AM 79.0 °F 44.1 °F 29% 29.80 in 10.0 mi SSE 4.6 mph - N/A   Clear
12:53 PM 82.0 °F 42.1 °F 24% 29.76 in 10.0 mi West 9.2 mph - N/A   Partly Cloudy
1:53 PM 82.0 °F 39.9 °F 22% 29.74 in 10.0 mi NW 15.0 mph - N/A   Clear
2:53 PM 82.9 °F 35.1 °F 18% 29.72 in 10.0 mi North - - N/A   Clear
3:53 PM 86.0 °F 33.1 °F 15% 29.69 in 10.0 mi NW 6.9 mph - N/A   Clear
4:53 PM 84.9 °F 28.9 °F 13% 29.67 in 10.0 mi Variable 3.5 mph - N/A   Clear
5:53 PM 87.1 °F 28.0 °F 12% 29.65 in 10.0 mi WSW 5.8 mph - N/A   Clear
6:53 PM 88.0 °F 19.9 °F 8% 29.62 in 10.0 mi SW 13.8 mph - N/A   Clear
7:53 PM 84.0 °F 21.9 °F 10% 29.62 in 10.0 mi SSW 12.7 mph - N/A   Clear
8:53 PM 73.0 °F 30.9 °F 21% 29.64 in 10.0 mi Calm Calm - N/A   Clear
9:53 PM 64.9 °F 33.1 °F 31% 29.67 in 10.0 mi East 5.8 mph - N/A   Clear
10:44 PM 73.9 °F 28.0 °F 18% 29.88 in 10.0 mi WSW 17.3 mph 27.6 mph N/A Thunderstorm Thunderstorm
10:53 PM 80.1 °F 24.1 °F 13% 29.65 in 10.0 mi SSW 12.7 mph 31.1 mph 0.00 in Rain Light Rain
11:00 PM 78.1 °F 25.0 °F 14% 29.85 in 10.0 mi South 8.1 mph - 0.00 in   Partly Cloudy
11:53 PM 72.0 °F 28.9 °F 20% 29.64 in 10.0 mi East 6.9 mph - 0.00 in   Clear